Simultaneous Nadir Overpasses (SNOs) Predictions

Prediction of SNOs between GOES-16 and LANDSAT-8 Satellite Orbit:

Table of predicted SNOs for the next 14.0 days since TLE Epoch: 6/29/2024
Index Date Time (GOES-16) GOES-16 Lat,Lon LANDSAT-8 Lat,Lon Distance(km) Time Diff (sec)
1 06/30/2024 15:08:27 0.02, -75.21 -0.25, -73.92 146.66 80
2 07/01/2024 03:27:10 -0.02, -75.21 -0.86, -79.10 443.60 80
3 07/02/2024 14:56:16 0.02, -75.22 -0.91, -70.96 484.78 80
4 07/03/2024 03:14:59 -0.02, -75.22 -0.19, -76.15 105.41 80
5 07/05/2024 03:05:27 -0.02, -75.23 0.39, -73.18 233.44 80
6 07/05/2024 15:24:02 0.02, -75.24 0.67, -78.34 351.89 80
7 07/07/2024 15:11:49 0.02, -75.27 0.06, -75.37 12.08 80
8 07/09/2024 15:02:16 0.02, -75.30 -0.58, -72.40 328.99 80
9 07/10/2024 03:23:40 -0.02, -75.31 -0.50, -77.60 260.17 80
10 07/12/2024 03:08:47 -0.01, -75.35 0.17, -74.63 82.10 80
